UAE3 OMDB-EGLL

Flight info

Callsign UAE3
Flight time N/A
Altitude 35000
Route ANVIX7F ANVIX L223 TARDI N629 BOTAM Y855 LAKLU/N0494F340 Q204 NALKI G652 TOKRA DCT ALROK DCT BOSOB DCT ITRUX Y511 LAKMI/N0503F360 Y511 PMA Z712 WEJ L677 GESON Q777 RASDA DCT OTHON DCT VAXOS DCT RDS UL609 MES DCT FSK/N0476F380 DCT DISOR DCT LONTA UL608 DOLEV DCT SABAD DCT KUBUD DCT SOTOV DCT XEBIX DCT USUDO DCT LIRSU DCT DENUT L608 COA/N0365F180 L179 SASKI L608 LOGAN LOGAN2H
Aircraft A388/J-SDE1E2E3FGHIJ2J3J4J5M1RWXYZ/LB1D1

Departure

Time 2026-04-25 09:40
Airport Dubai International Airport (OMDB)

Arrival

Time N/A
Airport London Heathrow Airport (EGLL)
Time Latitude Longitude Altitude Speed Heading
2026-04-25 08:55 25.24880 55.36292 27 ft 0 kts 211°
2026-04-25 09:17 25.24887 55.36296 27 ft 1 kts 211°
2026-04-25 09:17 25.24893 55.36301 27 ft 1 kts 211°
2026-04-25 09:17 25.24899 55.36305 26 ft 1 kts 211°
2026-04-25 09:18 25.24906 55.36308 26 ft 1 kts 205°
2026-04-25 09:18 25.24913 55.36310 26 ft 2 kts 198°
2026-04-25 09:18 25.24923 55.36313 26 ft 3 kts 195°
2026-04-25 09:18 25.24942 55.36318 24 ft 3 kts 195°
2026-04-25 09:19 25.24963 55.36320 25 ft 3 kts 173°
2026-04-25 09:19 25.24979 55.36311 26 ft 3 kts 147°
2026-04-25 09:19 25.24990 55.36296 24 ft 3 kts 121°
2026-04-25 09:19 25.24993 55.36291 24 ft 0 kts 117°
2026-04-25 09:24 25.24986 55.36306 27 ft 7 kts 109°
2026-04-25 09:25 25.24992 55.36341 27 ft 9 kts 40°
2026-04-25 09:25 25.25069 55.36322 27 ft 14 kts 318°
2026-04-25 09:25 25.25088 55.36301 27 ft 0 kts 308°
2026-04-25 09:26 25.25090 55.36298 27 ft 3 kts 308°
2026-04-25 09:26 25.25112 55.36267 27 ft 0 kts 305°
2026-04-25 09:26 25.25118 55.36258 27 ft 4 kts 309°
2026-04-25 09:27 25.25126 55.36246 27 ft 8 kts 303°
2026-04-25 09:27 25.25160 55.36184 27 ft 11 kts 300°
2026-04-25 09:27 25.25202 55.36105 27 ft 13 kts 301°
2026-04-25 09:27 25.25253 55.36012 27 ft 15 kts 301°
2026-04-25 09:28 25.25312 55.35907 27 ft 17 kts 302°
2026-04-25 09:28 25.25353 55.35834 27 ft 11 kts 302°
2026-04-25 09:28 25.25381 55.35782 26 ft 13 kts 302°
2026-04-25 09:28 25.25422 55.35710 26 ft 14 kts 302°
2026-04-25 09:29 25.25478 55.35609 26 ft 16 kts 301°
2026-04-25 09:29 25.25539 55.35499 31 ft 18 kts 301°
2026-04-25 09:29 25.25606 55.35377 28 ft 19 kts 301°
2026-04-25 09:29 25.25642 55.35310 29 ft 4 kts 301°
2026-04-25 09:30 25.25660 55.35279 30 ft 7 kts 302°
2026-04-25 09:30 25.25692 55.35231 31 ft 9 kts 324°
2026-04-25 09:30 25.25748 55.35222 31 ft 10 kts
2026-04-25 09:30 25.25816 55.35251 29 ft 12 kts 30°
2026-04-25 09:31 25.25864 55.35281 30 ft 0 kts 31°
2026-04-25 09:31 25.25880 55.35292 27 ft 6 kts 31°
2026-04-25 09:31 25.25928 55.35326 29 ft 11 kts 36°
2026-04-25 09:31 25.25982 55.35396 28 ft 14 kts 66°
2026-04-25 09:32 25.25984 55.35507 27 ft 15 kts 126°
2026-04-25 09:32 25.25938 55.35626 28 ft 19 kts 115°
2026-04-25 09:32 25.25866 55.35764 30 ft 23 kts 122°
2026-04-25 09:32 25.25787 55.35906 26 ft 24 kts 122°
2026-04-25 09:33 25.25725 55.36016 26 ft 16 kts 121°
2026-04-25 09:33 25.25666 55.36123 27 ft 17 kts 121°
2026-04-25 09:33 25.25601 55.36242 27 ft 19 kts 121°
2026-04-25 09:33 25.25540 55.36353 27 ft 20 kts 121°
2026-04-25 09:34 25.25495 55.36435 27 ft 20 kts 121°
2026-04-25 09:34 25.25431 55.36547 27 ft 18 kts 122°
2026-04-25 09:34 25.25363 55.36667 27 ft 19 kts 122°
2026-04-25 09:34 25.25292 55.36797 27 ft 20 kts 120°
2026-04-25 09:35 25.25220 55.36932 27 ft 21 kts 120°
2026-04-25 09:35 25.25145 55.37071 29 ft 21 kts 121°
2026-04-25 09:35 25.25067 55.37209 31 ft 21 kts 122°
2026-04-25 09:35 25.24991 55.37342 33 ft 20 kts 122°
2026-04-25 09:36 25.24918 55.37472 36 ft 20 kts 122°
2026-04-25 09:36 25.24850 55.37596 39 ft 19 kts 120°
2026-04-25 09:36 25.24785 55.37722 42 ft 19 kts 120°
2026-04-25 09:36 25.24716 55.37841 45 ft 18 kts 124°
2026-04-25 09:37 25.24702 55.37864 45 ft 5 kts 123°
2026-04-25 09:37 25.24686 55.37895 46 ft 5 kts 104°
2026-04-25 09:37 25.24687 55.37930 46 ft 5 kts 74°
2026-04-25 09:37 25.24706 55.37964 47 ft 6 kts 47°
2026-04-25 09:38 25.24737 55.37994 44 ft 7 kts 37°
2026-04-25 09:38 25.24777 55.38016 47 ft 6 kts
2026-04-25 09:38 25.24814 55.38004 46 ft 5 kts 316°
2026-04-25 09:38 25.24837 55.37976 46 ft 0 kts 302°
2026-04-25 09:39 25.24862 55.37931 45 ft 31 kts 301°
2026-04-25 09:39 25.25108 55.37478 34 ft 101 kts 302°
2026-04-25 09:40 25.26154 55.35585 89 ft 171 kts 300°
2026-04-25 09:40 25.26747 55.34471 519 ft 167 kts 302°
2026-04-25 09:40 25.27391 55.33339 674 ft 183 kts 303°
2026-04-25 09:40 25.27983 55.32306 1150 ft 173 kts 303°
2026-04-25 09:41 25.28650 55.31177 1444 ft 184 kts 303°
2026-04-25 09:41 25.29229 55.29835 1606 ft 201 kts 283°
2026-04-25 09:41 25.29135 55.28261 1719 ft 217 kts 253°
2026-04-25 09:41 25.28437 55.26734 1783 ft 224 kts 245°
2026-04-25 09:42 25.27721 55.25144 1978 ft 241 kts 246°
2026-04-25 09:42 25.27004 55.23461 2489 ft 242 kts 246°
2026-04-25 09:42 25.26285 55.21771 3008 ft 244 kts 246°
2026-04-25 09:42 25.25565 55.20078 3624 ft 244 kts 246°
2026-04-25 09:43 25.24830 55.18396 4122 ft 248 kts 240°
2026-04-25 09:43 25.23600 55.17038 4722 ft 254 kts 210°
2026-04-25 09:43 25.21883 55.16501 5365 ft 259 kts 181°
2026-04-25 09:43 25.20231 55.16616 5939 ft 262 kts 172°
2026-04-25 09:44 25.18536 55.17337 6466 ft 266 kts 145°
2026-04-25 09:44 25.17315 55.18846 7004 ft 269 kts 119°
2026-04-25 09:44 25.16480 55.20738 7314 ft 284 kts 115°
2026-04-25 09:44 25.15634 55.22773 7688 ft 295 kts 116°
2026-04-25 09:45 25.14758 55.24780 8256 ft 297 kts 118°
2026-04-25 09:45 25.13817 55.26830 8875 ft 297 kts 119°
2026-04-25 09:45 25.12859 55.28850 9440 ft 300 kts 120°
2026-04-25 09:45 25.11883 55.30884 10019 ft 301 kts 120°
2026-04-25 09:46 25.10900 55.32921 10547 ft 303 kts 120°
2026-04-25 09:46 25.09996 55.35038 11081 ft 305 kts 116°
2026-04-25 09:46 25.09123 55.37184 11613 ft 306 kts 116°
2026-04-25 09:46 25.08243 55.39323 12151 ft 308 kts 116°
2026-04-25 09:47 25.07359 55.41465 12728 ft 309 kts 116°
2026-04-25 09:47 25.06469 55.43661 13009 ft 321 kts 115°
2026-04-25 09:47 25.05577 55.45980 13149 ft 335 kts 114°
2026-04-25 09:47 25.04653 55.48416 13295 ft 349 kts 114°
2026-04-25 09:48 25.03709 55.50895 13510 ft 360 kts 114°
2026-04-25 09:48 25.02727 55.53460 13994 ft 362 kts 114°
2026-04-25 09:48 25.01661 55.56012 14411 ft 365 kts 120°
2026-04-25 09:48 25.00381 55.58374 14853 ft 366 kts 123°
2026-04-25 09:49 24.99062 55.60791 15303 ft 369 kts 122°
2026-04-25 09:49 24.97730 55.63257 15759 ft 371 kts 122°
2026-04-25 09:49 24.96413 55.65698 16189 ft 374 kts 122°
2026-04-25 09:49 24.95086 55.68158 16657 ft 377 kts 122°
2026-04-25 09:50 24.93699 55.70599 17068 ft 378 kts 127°
2026-04-25 09:50 24.92131 55.72943 17482 ft 380 kts 128°
2026-04-25 09:50 24.90551 55.75317 17923 ft 383 kts 128°
2026-04-25 09:50 24.88980 55.77686 18328 ft 385 kts 128°
2026-04-25 09:51 24.87408 55.80060 18648 ft 389 kts 128°
2026-04-25 09:51 24.85790 55.82501 18987 ft 392 kts 128°
2026-04-25 09:51 24.84186 55.84919 19296 ft 396 kts 128°
2026-04-25 09:51 24.82556 55.87355 19615 ft 399 kts 129°
2026-04-25 09:52 24.80896 55.89803 19941 ft 402 kts 129°
2026-04-25 09:52 24.79214 55.92277 20253 ft 406 kts 129°
2026-04-25 09:52 24.77354 55.94660 20574 ft 407 kts 137°
2026-04-25 09:52 24.75303 55.96769 20866 ft 409 kts 139°
2026-04-25 09:53 24.73421 55.98686 21167 ft 412 kts 139°
2026-04-25 09:53 24.71354 56.00808 21471 ft 415 kts 139°
2026-04-25 09:53 24.69257 56.02967 21786 ft 418 kts 139°
2026-04-25 09:53 24.67203 56.05082 22082 ft 421 kts 139°
2026-04-25 09:54 24.65034 56.07316 22387 ft 424 kts 139°
2026-04-25 09:54 24.62890 56.09524 22699 ft 427 kts 139°
2026-04-25 09:54 24.60703 56.11776 23011 ft 430 kts 139°
2026-04-25 09:54 24.58530 56.14011 23327 ft 433 kts 139°
2026-04-25 09:55 24.56370 56.16383 23601 ft 438 kts 133°
2026-04-25 09:55 24.54381 56.18950 23892 ft 440 kts 132°
2026-04-25 09:55 24.52453 56.21422 24168 ft 441 kts 133°
2026-04-25 09:55 24.50438 56.23990 24457 ft 443 kts 133°
2026-04-25 09:56 24.48413 56.26566 24754 ft 444 kts 133°
2026-04-25 09:56 24.46461 56.29048 25040 ft 445 kts 133°
2026-04-25 09:56 24.44471 56.31577 25300 ft 448 kts 133°
2026-04-25 09:56 24.42426 56.34177 25555 ft 450 kts 133°
2026-04-25 09:57 24.40392 56.36762 25835 ft 451 kts 133°
2026-04-25 09:57 24.38320 56.39392 26126 ft 454 kts 133°
2026-04-25 09:57 24.36258 56.42008 26407 ft 456 kts 133°
2026-04-25 09:57 24.34165 56.44663 26724 ft 458 kts 133°
2026-04-25 09:58 24.32088 56.47297 27047 ft 460 kts 133°
2026-04-25 09:58 24.29995 56.49965 27381 ft 462 kts 131°
2026-04-25 09:58 24.28077 56.52794 27691 ft 466 kts 127°
2026-04-25 09:58 24.26178 56.55676 28035 ft 468 kts 128°
2026-04-25 09:59 24.24249 56.58590 28395 ft 470 kts 128°
2026-04-25 09:59 24.22346 56.61456 28752 ft 473 kts 128°
2026-04-25 09:59 24.20409 56.64370 29125 ft 475 kts 128°
2026-04-25 09:59 24.18444 56.67324 29488 ft 477 kts 128°
2026-04-25 10:00 24.16502 56.70242 29858 ft 480 kts 128°
2026-04-25 10:00 24.14509 56.73234 30168 ft 482 kts 128°
2026-04-25 10:00 24.12540 56.76188 30500 ft 484 kts 128°
2026-04-25 10:00 24.10537 56.79193 30851 ft 486 kts 128°
2026-04-25 10:01 24.08551 56.82171 31159 ft 488 kts 128°
2026-04-25 10:01 24.06503 56.85122 31444 ft 489 kts 134°
2026-04-25 10:01 24.04053 56.87659 31748 ft 487 kts 145°
2026-04-25 10:01 24.01166 56.89637 32052 ft 485 kts 157°
2026-04-25 10:02 23.98012 56.90937 32366 ft 482 kts 168°
2026-04-25 10:02 23.94766 56.91755 32664 ft 482 kts 171°
2026-04-25 10:02 23.91455 56.92488 32970 ft 484 kts 171°
2026-04-25 10:02 23.88175 56.93253 33288 ft 487 kts 170°
2026-04-25 10:03 23.84841 56.94085 33602 ft 489 kts 169°
2026-04-25 10:03 23.81553 56.94943 33891 ft 491 kts 169°
2026-04-25 10:03 23.78232 56.95829 34141 ft 494 kts 169°
2026-04-25 10:03 23.74873 56.96730 34343 ft 497 kts 169°
2026-04-25 10:04 23.71527 56.97629 34541 ft 501 kts 169°
2026-04-25 10:04 23.68114 56.98545 34819 ft 503 kts 169°
2026-04-25 10:04 23.64715 56.99455 34954 ft 508 kts 169°
2026-04-25 10:04 23.61238 57.00385 34953 ft 517 kts 169°
2026-04-25 10:05 23.54259 57.02253 34966 ft 516 kts 169°
2026-04-25 10:05 23.47333 57.04105 34974 ft 515 kts 169°
2026-04-25 10:06 23.40290 57.05715 34980 ft 512 kts 177°
2026-04-25 10:06 23.33275 57.05603 34989 ft 505 kts 191°
2026-04-25 10:07 23.26412 57.04047 34997 ft 504 kts 195°
2026-04-25 10:07 23.19522 57.02425 34999 ft 505 kts 195°
2026-04-25 10:08 23.12675 57.00821 35006 ft 505 kts 195°
2026-04-25 10:08 23.05805 56.99210 34998 ft 505 kts 195°
2026-04-25 10:09 22.98958 56.97604 34995 ft 505 kts 195°
2026-04-25 10:09 22.92055 56.95981 34988 ft 506 kts 195°
2026-04-25 10:10 22.85586 56.93386 34978 ft 497 kts 214°
2026-04-25 10:10 22.80404 56.88558 34969 ft 490 kts 234°
2026-04-25 10:11 22.76945 56.82279 34962 ft 486 kts 245°
2026-04-25 10:11 22.73992 56.76110 34966 ft 486 kts 244°
2026-04-25 10:12 22.71384 56.70700 34960 ft 486 kts 244°
2026-04-25 10:13 22.66701 56.60988 34951 ft 485 kts 245°
2026-04-25 10:13 22.63584 56.54534 34942 ft 485 kts 245°
2026-04-25 10:14 22.60469 56.48089 34933 ft 484 kts 245°
2026-04-25 10:14 22.57331 56.41607 34919 ft 483 kts 245°
2026-04-25 10:15 22.54220 56.35186 34916 ft 483 kts 245°
2026-04-25 10:15 22.51121 56.28788 34910 ft 482 kts 245°
2026-04-25 10:16 22.47999 56.22352 34908 ft 482 kts 245°
2026-04-25 10:16 22.44895 56.15959 34901 ft 481 kts 245°
2026-04-25 10:17 22.41769 56.09531 34899 ft 481 kts 245°
2026-04-25 10:17 22.38655 56.03137 34893 ft 481 kts 245°
2026-04-25 10:18 22.35545 55.96773 34890 ft 480 kts 245°
2026-04-25 10:18 22.32412 55.90401 34885 ft 480 kts 245°
2026-04-25 10:19 22.29279 55.84033 34880 ft 480 kts 245°
2026-04-25 10:19 22.26165 55.77707 34877 ft 479 kts 245°
2026-04-25 10:20 22.23028 55.71323 34875 ft 479 kts 245°
2026-04-25 10:20 22.19920 55.64989 34868 ft 479 kts 245°
2026-04-25 10:21 22.17044 55.58533 34862 ft 475 kts 253°
2026-04-25 10:21 22.15377 55.51701 34859 ft 471 kts 263°
2026-04-25 10:22 22.14750 55.44722 34861 ft 470 kts 267°
2026-04-25 10:22 22.14174 55.37687 34857 ft 470 kts 266°
2026-04-25 10:23 22.13592 55.30668 34856 ft 470 kts 266°
2026-04-25 10:23 22.13011 55.23669 34853 ft 470 kts 266°
2026-04-25 10:24 22.12425 55.16634 34858 ft 470 kts 266°
2026-04-25 10:24 22.11840 55.09641 34855 ft 470 kts 266°
2026-04-25 10:25 22.11251 55.02643 34856 ft 469 kts 266°
2026-04-25 10:25 22.10659 54.95639 34851 ft 469 kts 266°
2026-04-25 10:26 22.10064 54.88646 34854 ft 469 kts 266°
2026-04-25 10:26 22.09464 54.81625 34853 ft 469 kts 266°
2026-04-25 10:27 22.08866 54.74660 34852 ft 468 kts 266°
2026-04-25 10:27 22.08263 54.67672 34853 ft 468 kts 266°
2026-04-25 10:28 22.07657 54.60681 34853 ft 468 kts 266°
2026-04-25 10:28 22.07050 54.53714 34852 ft 468 kts 266°
2026-04-25 10:29 22.06437 54.46716 34853 ft 468 kts 266°
2026-04-25 10:29 22.05828 54.39791 34852 ft 468 kts 266°
2026-04-25 10:30 22.05209 54.32796 34850 ft 468 kts 266°
2026-04-25 10:30 22.04588 54.25814 34850 ft 468 kts 266°
2026-04-25 10:31 22.03968 54.18876 34856 ft 468 kts 266°
2026-04-25 10:31 22.03341 54.11890 34858 ft 468 kts 266°
2026-04-25 10:32 22.02712 54.04904 34858 ft 472 kts 266°
2026-04-25 10:32 22.02073 53.97847 34860 ft 478 kts 266°
2026-04-25 10:33 22.01418 53.90662 34864 ft 479 kts 265°
2026-04-25 10:33 22.00839 53.84334 34861 ft 478 kts 265°
2026-04-25 10:34 22.00260 53.78032 34855 ft 478 kts 265°
2026-04-25 10:34 21.99600 53.70872 34862 ft 479 kts 265°
2026-04-25 10:35 21.98928 53.63634 34862 ft 479 kts 265°
2026-04-25 10:35 21.98285 53.56738 34860 ft 479 kts 265°
2026-04-25 10:36 21.97604 53.49455 34864 ft 480 kts 265°
2026-04-25 10:36 21.96933 53.42302 34863 ft 480 kts 265°
2026-04-25 10:37 21.96251 53.35088 34862 ft 480 kts 265°
2026-04-25 10:37 21.95589 53.28115 34865 ft 480 kts 265°
2026-04-25 10:38 21.95034 53.22297 34868 ft 480 kts 265°
2026-04-25 10:38 21.94353 53.15181 34868 ft 481 kts 265°
2026-04-25 10:39 21.93661 53.07993 34872 ft 480 kts 265°
2026-04-25 10:39 21.92970 53.00841 34867 ft 480 kts 265°
2026-04-25 10:40 21.92277 52.93702 34876 ft 480 kts 265°
2026-04-25 10:40 21.91582 52.86565 34874 ft 480 kts 265°
2026-04-25 10:41 21.90879 52.79386 34876 ft 480 kts 265°
2026-04-25 10:41 21.90347 52.72368 34877 ft 479 kts 270°
2026-04-25 10:42 21.90955 52.65223 34877 ft 479 kts 280°
2026-04-25 10:42 21.92276 52.58229 34876 ft 478 kts 281°
2026-04-25 10:43 21.93563 52.51170 34877 ft 478 kts 281°
2026-04-25 10:43 21.94842 52.44178 34877 ft 478 kts 281°
2026-04-25 10:44 21.96112 52.37241 34879 ft 478 kts 281°
2026-04-25 10:44 21.97388 52.30250 34880 ft 477 kts 281°
2026-04-25 10:45 21.98672 52.23199 34886 ft 477 kts 281°
2026-04-25 10:45 21.99892 52.16482 34887 ft 477 kts 281°
2026-04-25 10:46 22.01166 52.09448 34886 ft 476 kts 281°
2026-04-25 10:46 22.02430 52.02453 34886 ft 475 kts 281°
2026-04-25 10:47 22.03694 51.95438 34887 ft 475 kts 281°
2026-04-25 10:47 22.04951 51.88445 34887 ft 475 kts 281°
2026-04-25 10:48 22.06196 51.81507 34887 ft 474 kts 281°
2026-04-25 10:48 22.07444 51.74527 34889 ft 474 kts 281°
2026-04-25 10:49 22.08687 51.67562 34891 ft 473 kts 281°
2026-04-25 10:49 22.09920 51.60631 34891 ft 473 kts 281°
2026-04-25 10:50 22.11152 51.53688 34892 ft 473 kts 280°
2026-04-25 10:50 22.12384 51.46730 34896 ft 473 kts 280°
2026-04-25 10:51 22.13616 51.39754 34894 ft 472 kts 280°
2026-04-25 10:51 22.14841 51.32802 34898 ft 473 kts 280°
2026-04-25 10:52 22.16071 51.25802 34898 ft 473 kts 280°
2026-04-25 10:52 22.17290 51.18845 34900 ft 474 kts 280°
2026-04-25 10:53 22.18512 51.11849 34894 ft 473 kts 280°
2026-04-25 10:53 22.19723 51.04903 34899 ft 474 kts 280°
2026-04-25 10:54 22.20926 50.97987 34898 ft 473 kts 280°
2026-04-25 10:54 22.22134 50.91020 34899 ft 472 kts 280°
2026-04-25 10:55 22.23337 50.84066 34902 ft 471 kts 280°
2026-04-25 10:55 22.24533 50.77128 34898 ft 469 kts 279°
2026-04-25 10:56 22.25729 50.70180 34898 ft 468 kts 279°
2026-04-25 10:56 22.26914 50.63276 34897 ft 468 kts 279°
2026-04-25 10:57 22.28088 50.56416 34897 ft 467 kts 279°
2026-04-25 10:57 22.29271 50.49483 34898 ft 467 kts 279°
2026-04-25 10:58 22.30439 50.42618 34899 ft 467 kts 279°
2026-04-25 10:58 22.31608 50.35734 34904 ft 466 kts 279°
2026-04-25 10:59 22.32769 50.28878 34899 ft 466 kts 279°
2026-04-25 10:59 22.33934 50.21981 34899 ft 467 kts 279°
2026-04-25 11:00 22.34911 50.16181 34901 ft 468 kts 279°
2026-04-25 11:00 22.36070 50.09288 34903 ft 469 kts 279°
2026-04-25 11:01 22.37230 50.02365 34903 ft 470 kts 279°
2026-04-25 11:01 22.38393 49.95408 34898 ft 471 kts 279°
2026-04-25 11:02 22.39555 49.88439 34902 ft 472 kts 279°
2026-04-25 11:02 22.40716 49.81453 34900 ft 472 kts 279°
2026-04-25 11:03 22.41871 49.74488 34903 ft 472 kts 279°
2026-04-25 11:03 22.43025 49.67505 34903 ft 470 kts 279°
2026-04-25 11:04 22.44165 49.60593 34906 ft 469 kts 279°
2026-04-25 11:04 22.45301 49.53683 34908 ft 467 kts 279°
2026-04-25 11:05 22.46433 49.46777 34904 ft 466 kts 279°
2026-04-25 11:05 22.47560 49.39886 34906 ft 466 kts 278°
2026-04-25 11:06 22.48660 49.33144 34912 ft 465 kts 278°
2026-04-25 11:06 22.49772 49.26308 34903 ft 465 kts 278°
2026-04-25 11:07 22.50888 49.19421 34905 ft 465 kts 278°
2026-04-25 11:07 22.51999 49.12555 34908 ft 464 kts 278°
2026-04-25 11:08 22.53111 49.05655 34908 ft 465 kts 278°
2026-04-25 11:08 22.54223 48.98745 34910 ft 465 kts 278°
2026-04-25 11:09 22.55321 48.91899 34904 ft 466 kts 278°
2026-04-25 11:09 22.56430 48.84961 34909 ft 466 kts 278°
2026-04-25 11:10 22.57532 48.78051 34907 ft 467 kts 278°
2026-04-25 11:10 22.58635 48.71117 34910 ft 468 kts 278°
2026-04-25 11:11 22.59676 48.64550 34913 ft 469 kts 278°
2026-04-25 11:11 22.60782 48.57552 34915 ft 469 kts 278°
2026-04-25 11:12 22.61276 48.54427 34910 ft 469 kts 278°
2026-04-25 11:12 22.62267 48.48131 34915 ft 470 kts 278°
2026-04-25 11:13 22.63359 48.41178 34917 ft 470 kts 278°
2026-04-25 11:13 22.64452 48.34197 34915 ft 470 kts 278°
2026-04-25 11:14 22.65539 48.27238 34908 ft 470 kts 278°
2026-04-25 11:14 22.66618 48.20312 34912 ft 470 kts 278°
2026-04-25 11:15 22.67717 48.13248 34914 ft 470 kts 278°
2026-04-25 11:15 22.68804 48.06245 34915 ft 470 kts 278°
2026-04-25 11:16 22.69679 47.97448 34914 ft 470 kts 274°
2026-04-25 11:16 22.70288 47.90375 34918 ft 470 kts 274°
2026-04-25 11:17 22.70890 47.83325 34923 ft 470 kts 274°
2026-04-25 11:17 22.71478 47.76266 34927 ft 470 kts 274°
2026-04-25 11:18 22.72060 47.69221 34924 ft 470 kts 274°
2026-04-25 11:18 22.72641 47.62154 34930 ft 469 kts 274°
2026-04-25 11:19 22.73211 47.55183 34936 ft 468 kts 274°
2026-04-25 11:19 22.73774 47.48256 34937 ft 466 kts 274°
2026-04-25 11:20 22.74346 47.41185 34941 ft 466 kts 274°
2026-04-25 11:20 22.74897 47.34340 34942 ft 464 kts 274°
2026-04-25 11:21 22.75454 47.27377 34948 ft 463 kts 274°
2026-04-25 11:21 22.76008 47.20411 34957 ft 463 kts 274°
2026-04-25 11:22 22.76465 47.14638 34954 ft 462 kts 274°
2026-04-25 11:22 22.77108 47.06560 34957 ft 462 kts 274°
2026-04-25 11:23 22.77654 46.99652 34963 ft 461 kts 274°
2026-04-25 11:23 22.78181 46.92845 34966 ft 453 kts 275°
2026-04-25 11:24 22.78719 46.86028 34965 ft 448 kts 275°
2026-04-25 11:24 22.79244 46.79307 34971 ft 449 kts 275°
2026-04-25 11:25 22.79763 46.72595 34969 ft 449 kts 275°
2026-04-25 11:25 22.80274 46.65959 34974 ft 448 kts 275°
2026-04-25 11:26 22.80787 46.59249 34974 ft 448 kts 275°
2026-04-25 11:26 22.81296 46.52547 34976 ft 448 kts 275°
2026-04-25 11:27 22.81803 46.45842 34975 ft 447 kts 275°
2026-04-25 11:27 22.82227 46.40198 34977 ft 447 kts 275°
2026-04-25 11:28 22.82810 46.32385 34973 ft 447 kts 275°
2026-04-25 11:28 22.83305 46.25681 34971 ft 446 kts 275°
2026-04-25 11:29 22.83793 46.19036 34969 ft 445 kts 275°
2026-04-25 11:29 22.84267 46.12554 34965 ft 445 kts 275°
2026-04-25 11:30 22.84746 46.05934 34958 ft 445 kts 275°
2026-04-25 11:30 22.85232 45.99232 34956 ft 445 kts 275°
2026-04-25 11:31 22.85711 45.92556 34953 ft 445 kts 275°
2026-04-25 11:31 22.86192 45.85823 34947 ft 444 kts 275°
2026-04-25 11:32 22.86666 45.79150 34943 ft 444 kts 275°
2026-04-25 11:32 22.87134 45.72512 34945 ft 444 kts 275°
2026-04-25 11:33 22.87584 45.66090 34947 ft 444 kts 275°
2026-04-25 11:33 22.88052 45.59390 34949 ft 444 kts 275°
2026-04-25 11:34 22.88514 45.52720 34946 ft 443 kts 275°
2026-04-25 11:34 22.88973 45.46053 34945 ft 443 kts 275°
2026-04-25 11:35 22.89427 45.39428 34947 ft 443 kts 275°
2026-04-25 11:35 22.89881 45.32760 34943 ft 445 kts 275°
2026-04-25 11:36 22.90332 45.26076 34943 ft 443 kts 275°
2026-04-25 11:36 22.90780 45.19413 34949 ft 443 kts 275°
2026-04-25 11:37 22.91198 45.13154 34948 ft 442 kts 275°
2026-04-25 11:37 22.91639 45.06534 34946 ft 442 kts 275°
2026-04-25 11:38 22.92076 44.99883 34946 ft 442 kts 275°
2026-04-25 11:38 22.92511 44.93227 34948 ft 442 kts 275°
2026-04-25 11:39 22.92944 44.86562 34946 ft 443 kts 275°
2026-04-25 11:39 22.93375 44.79892 34948 ft 442 kts 275°
2026-04-25 11:40 22.93718 44.74542 34947 ft 442 kts 275°
2026-04-25 11:40 22.94199 44.68888 34945 ft 442 kts 279°
2026-04-25 11:41 22.95956 44.61343 34946 ft 443 kts 287°
2026-04-25 11:41 22.97936 44.55005 34946 ft 443 kts 287°
2026-04-25 11:42 22.99567 44.49697 34940 ft 443 kts 287°
2026-04-25 11:42 23.01522 44.43338 34938 ft 443 kts 287°
2026-04-25 11:43 23.03441 44.37097 34945 ft 442 kts 287°
2026-04-25 11:43 23.04997 44.32035 34941 ft 431 kts 287°
2026-04-25 11:44 23.06887 44.25873 34941 ft 429 kts 287°
2026-04-25 11:44 23.08689 44.19985 34942 ft 430 kts 287°
2026-04-25 11:45 23.10580 44.13801 34938 ft 430 kts 287°
2026-04-25 11:45 23.12454 44.07665 34936 ft 430 kts 287°
2026-04-25 11:46 23.14335 44.01495 34941 ft 429 kts 287°
2026-04-25 11:46 23.16173 43.95457 34933 ft 428 kts 286°
2026-04-25 11:47 23.18055 43.89266 34937 ft 428 kts 286°
2026-04-25 11:47 23.19601 43.84171 34939 ft 428 kts 286°
2026-04-25 11:48 23.21467 43.78011 34940 ft 428 kts 286°
2026-04-25 11:48 23.23352 43.71777 34957 ft 439 kts 286°
2026-04-25 11:49 23.25225 43.65586 34957 ft 428 kts 286°
2026-04-25 11:49 23.27080 43.59433 34961 ft 429 kts 286°
2026-04-25 11:50 23.28942 43.53253 34967 ft 429 kts 286°
2026-04-25 11:50 23.30546 43.47916 34966 ft 429 kts 286°
2026-04-25 11:51 23.32402 43.41735 34971 ft 430 kts 286°
2026-04-25 11:51 23.34245 43.35590 34973 ft 430 kts 286°
2026-04-25 11:52 23.36100 43.29394 34976 ft 430 kts 286°
2026-04-25 11:52 23.37953 43.23194 34986 ft 430 kts 286°
2026-04-25 11:53 23.39787 43.17049 34989 ft 430 kts 286°
2026-04-25 11:53 23.41638 43.10831 34990 ft 430 kts 285°
2026-04-25 11:54 23.43475 43.04641 34991 ft 429 kts 285°
2026-04-25 11:55 23.46223 42.95359 34989 ft 429 kts 285°
2026-04-25 11:55 23.48032 42.89238 34984 ft 429 kts 285°
2026-04-25 11:56 23.49870 42.83011 34978 ft 429 kts 285°
2026-04-25 11:56 23.51690 42.76834 34981 ft 429 kts 285°
2026-04-25 11:57 23.53521 42.70617 34975 ft 429 kts 285°
2026-04-25 11:57 23.55344 42.64425 34973 ft 430 kts 285°
2026-04-25 11:58 23.57164 42.58234 34973 ft 430 kts 285°
2026-04-25 11:58 23.58987 42.52022 34974 ft 430 kts 285°
2026-04-25 11:59 23.60807 42.45811 34975 ft 430 kts 285°
2026-04-25 11:59 23.62622 42.39607 34975 ft 430 kts 285°
2026-04-25 12:00 23.65341 42.30289 34973 ft 429 kts 285°
2026-04-25 12:01 23.68043 42.20988 34960 ft 428 kts 285°
2026-04-25 12:01 23.69828 42.14821 34961 ft 428 kts 285°
2026-04-25 12:02 23.72519 42.05510 34953 ft 429 kts 285°
2026-04-25 12:02 23.74312 41.99293 34960 ft 429 kts 285°
2026-04-25 12:03 23.76105 41.93086 34963 ft 429 kts 285°
2026-04-25 12:03 23.77901 41.86873 34964 ft 429 kts 285°
2026-04-25 12:04 23.79687 41.80679 34959 ft 429 kts 285°
2026-04-25 12:04 23.81481 41.74444 34965 ft 430 kts 285°
2026-04-25 12:05 23.83272 41.68204 34972 ft 431 kts 285°
2026-04-25 12:05 23.85066 41.61943 34978 ft 432 kts 285°
2026-04-25 12:06 23.86861 41.55667 34986 ft 433 kts 284°
2026-04-25 12:06 23.88653 41.49368 34993 ft 434 kts 284°
2026-04-25 12:07 23.90443 41.43056 34998 ft 436 kts 284°
2026-04-25 12:07 23.92237 41.36723 35009 ft 437 kts 284°
2026-04-25 12:08 23.94028 41.30404 35013 ft 438 kts 284°
2026-04-25 12:08 23.95831 41.24044 35018 ft 438 kts 284°
2026-04-25 12:09 23.97632 41.17680 35009 ft 438 kts 284°
2026-04-25 12:09 23.99428 41.11319 35014 ft 438 kts 284°
2026-04-25 12:10 24.01227 41.04935 35011 ft 438 kts 284°
2026-04-25 12:10 24.03008 40.98608 35007 ft 437 kts 284°
2026-04-25 12:11 24.04800 40.92227 35003 ft 437 kts 284°
2026-04-25 12:11 24.06570 40.85913 34994 ft 436 kts 284°
2026-04-25 12:12 24.08045 40.80643 34990 ft 435 kts 284°
2026-04-25 12:12 24.10116 40.73232 34970 ft 434 kts 284°
2026-04-25 12:13 24.11876 40.66919 34974 ft 433 kts 284°
2026-04-25 12:13 24.13624 40.60643 34962 ft 433 kts 284°
2026-04-25 12:14 24.15379 40.54346 34950 ft 433 kts 285°
2026-04-25 12:14 24.17722 40.48216 34942 ft 438 kts 293°
2026-04-25 12:15 24.20581 40.42318 34939 ft 439 kts 293°
2026-04-25 12:15 24.23402 40.36418 34940 ft 440 kts 293°
2026-04-25 12:16 24.26249 40.30466 34945 ft 440 kts 293°
2026-04-25 12:16 24.29092 40.24522 34945 ft 441 kts 293°
2026-04-25 12:17 24.31928 40.18585 34939 ft 441 kts 293°
2026-04-25 12:17 24.34783 40.12601 34940 ft 441 kts 292°
2026-04-25 12:18 24.37602 40.06687 34941 ft 440 kts 292°
2026-04-25 12:18 24.40446 40.00711 34939 ft 439 kts 292°
2026-04-25 12:19 24.44672 39.91816 34930 ft 438 kts 292°
2026-04-25 12:20 24.47479 39.85899 34925 ft 437 kts 292°
2026-04-25 12:20 24.50283 39.79980 34919 ft 437 kts 292°
2026-04-25 12:21 24.53224 39.74154 34915 ft 440 kts 298°
2026-04-25 12:21 24.57195 39.68953 34902 ft 450 kts 309°
2026-04-25 12:22 24.62138 39.64651 34906 ft 458 kts 316°
2026-04-25 12:22 24.67293 39.60545 34913 ft 457 kts 315°
2026-04-25 12:23 24.72457 39.56409 34915 ft 458 kts 315°
2026-04-25 12:23 24.77589 39.52301 34921 ft 457 kts 315°
2026-04-25 12:24 24.82725 39.48191 34918 ft 457 kts 315°
2026-04-25 12:24 24.87871 39.44068 34917 ft 456 kts 315°
2026-04-25 12:25 24.92980 39.39969 34923 ft 456 kts 315°
2026-04-25 12:25 24.98136 39.35827 34921 ft 456 kts 315°
2026-04-25 12:26 25.03228 39.31734 34914 ft 455 kts 315°
2026-04-25 12:26 25.08355 39.27609 34916 ft 455 kts 315°
2026-04-25 12:27 25.13449 39.23505 34910 ft 454 kts 315°
2026-04-25 12:27 25.18496 39.19351 34911 ft 449 kts 311°
2026-04-25 12:28 25.22832 39.14650 34905 ft 439 kts 303°
2026-04-25 12:28 25.26392 39.09292 34908 ft 431 kts 296°
2026-04-25 12:29 25.29646 39.03721 34892 ft 432 kts 296°
2026-04-25 12:29 25.32366 38.99097 34884 ft 431 kts 296°
2026-04-25 12:30 25.35608 38.93558 34889 ft 431 kts 296°
2026-04-25 12:30 25.38872 38.87966 34886 ft 430 kts 296°
2026-04-25 12:31 25.42095 38.82435 34875 ft 430 kts 296°
2026-04-25 12:31 25.45343 38.76854 34876 ft 430 kts 296°
2026-04-25 12:32 25.48569 38.71307 34868 ft 429 kts 296°
2026-04-25 12:32 25.51787 38.65766 34863 ft 429 kts 296°
2026-04-25 12:33 25.55019 38.60194 34860 ft 429 kts 296°
2026-04-25 12:33 25.58023 38.55008 34854 ft 428 kts 296°
2026-04-25 12:34 25.61241 38.49448 34849 ft 428 kts 296°
2026-04-25 12:34 25.64426 38.43937 34848 ft 427 kts 296°
2026-04-25 12:35 25.67639 38.38372 34850 ft 427 kts 296°
2026-04-25 12:35 25.70840 38.32822 34834 ft 427 kts 296°
2026-04-25 12:36 25.74031 38.27281 34840 ft 427 kts 295°
2026-04-25 12:36 25.77218 38.21741 34851 ft 426 kts 295°
2026-04-25 12:37 25.80404 38.16197 34840 ft 426 kts 295°
2026-04-25 12:37 25.83590 38.10647 34839 ft 426 kts 295°
2026-04-25 12:38 25.86762 38.05114 34858 ft 426 kts 295°
2026-04-25 12:38 25.89944 37.99554 34873 ft 426 kts 296°
2026-04-25 12:39 25.93107 37.94024 34883 ft 426 kts 295°
2026-04-25 12:39 25.96284 37.88464 34894 ft 425 kts 295°
2026-04-25 12:40 25.99104 37.82782 34891 ft 416 kts 288°
2026-04-25 12:40 26.00944 37.76743 34890 ft 410 kts 279°
2026-04-25 12:41 26.01904 37.70546 34898 ft 407 kts 276°
2026-04-25 12:41 26.02769 37.64226 34895 ft 421 kts 276°
2026-04-25 12:42 26.03654 37.57752 34892 ft 425 kts 276°
2026-04-25 12:42 26.04532 37.51276 34888 ft 423 kts 276°
2026-04-25 12:43 26.05398 37.44812 34890 ft 424 kts 276°
2026-04-25 12:43 26.06700 37.35080 34889 ft 424 kts 275°
2026-04-25 12:44 26.07566 37.28577 34880 ft 424 kts 275°
2026-04-25 12:45 26.08856 37.18845 34873 ft 425 kts 275°
2026-04-25 12:45 26.10140 37.09113 34871 ft 422 kts 275°
2026-04-25 12:46 26.10985 37.02673 34862 ft 423 kts 275°
2026-04-25 12:46 26.11831 36.96201 34860 ft 423 kts 275°
2026-04-25 12:47 26.12675 36.89723 34864 ft 423 kts 275°
2026-04-25 12:47 26.13512 36.83273 34862 ft 422 kts 275°
2026-04-25 12:48 26.14349 36.76806 34862 ft 422 kts 275°
2026-04-25 12:48 26.15180 36.70360 34861 ft 422 kts 275°
2026-04-25 12:49 26.16008 36.63914 34856 ft 422 kts 275°
2026-04-25 12:49 26.16841 36.57403 34852 ft 421 kts 275°
2026-04-25 12:50 26.18215 36.51043 34854 ft 428 kts 286°
2026-04-25 12:50 26.21170 36.45256 34680 ft 437 kts 300°
2026-04-25 12:51 26.23215 36.42709 34309 ft 437 kts 305°
2026-04-25 12:51 26.25319 36.40342 34151 ft 428 kts 304°
2026-04-25 12:51 26.29185 36.35883 34319 ft 435 kts 304°
2026-04-25 12:52 26.31310 36.33425 34447 ft 434 kts 304°
2026-04-25 12:52 26.33387 36.31026 34550 ft 434 kts 304°
2026-04-25 12:52 26.35494 36.28593 34671 ft 434 kts 304°
2026-04-25 12:52 26.37576 36.26190 34793 ft 433 kts 304°
2026-04-25 12:53 26.41747 36.21369 34856 ft 432 kts 304°
2026-04-25 12:53 26.45905 36.16558 34854 ft 432 kts 304°
2026-04-25 12:54 26.50015 36.11796 34856 ft 432 kts 304°
2026-04-25 12:54 26.54191 36.06953 34858 ft 432 kts 304°
2026-04-25 12:55 26.57642 36.02947 34858 ft 432 kts 304°
2026-04-25 12:55 26.62511 35.97289 34860 ft 432 kts 304°
2026-04-25 12:56 26.66666 35.92454 34863 ft 432 kts 304°
2026-04-25 12:56 26.70823 35.87612 34863 ft 432 kts 304°
2026-04-25 12:57 26.74987 35.82756 34862 ft 432 kts 304°
2026-04-25 12:57 26.79119 35.77931 34867 ft 431 kts 304°
2026-04-25 12:58 26.83285 35.73062 34862 ft 431 kts 304°
2026-04-25 12:58 26.87434 35.68209 34864 ft 431 kts 304°
2026-04-25 12:59 26.91546 35.63392 34866 ft 431 kts 304°
2026-04-25 12:59 26.95713 35.58506 34863 ft 431 kts 304°
2026-04-25 13:00 26.98474 35.55266 34869 ft 431 kts 304°
2026-04-25 13:00 27.03986 35.48789 34856 ft 431 kts 304°
2026-04-25 13:01 27.08121 35.43924 34857 ft 431 kts 304°
2026-04-25 13:01 27.12259 35.39050 34866 ft 431 kts 304°
2026-04-25 13:02 27.16375 35.34196 34872 ft 431 kts 304°
2026-04-25 13:02 27.20523 35.29298 34871 ft 432 kts 304°
2026-04-25 13:03 27.24650 35.24420 34870 ft 432 kts 304°
2026-04-25 13:03 27.28798 35.19511 34869 ft 432 kts 304°
2026-04-25 13:04 27.32930 35.14616 34867 ft 432 kts 304°
2026-04-25 13:04 27.37035 35.09748 34861 ft 432 kts 304°
2026-04-25 13:05 27.41187 35.04817 34863 ft 432 kts 304°
2026-04-25 13:05 27.45321 34.99901 34863 ft 433 kts 304°
2026-04-25 13:06 27.49457 34.94978 34857 ft 433 kts 304°
2026-04-25 13:06 27.53742 34.90199 34857 ft 438 kts 307°
2026-04-25 13:07 27.58216 34.85492 34854 ft 438 kts 307°
2026-04-25 13:07 27.62671 34.80782 34861 ft 439 kts 307°
2026-04-25 13:08 27.67103 34.76091 34863 ft 439 kts 307°
2026-04-25 13:08 27.71556 34.71373 34863 ft 440 kts 307°
2026-04-25 13:09 27.76019 34.66640 34868 ft 440 kts 307°
2026-04-25 13:09 27.80482 34.61900 34858 ft 441 kts 307°
2026-04-25 13:10 27.84936 34.57165 34859 ft 441 kts 307°
2026-04-25 13:10 27.89407 34.52406 34859 ft 441 kts 307°
2026-04-25 13:11 27.93876 34.47642 34859 ft 441 kts 307°
2026-04-25 13:11 27.98357 34.42869 34862 ft 441 kts 307°
2026-04-25 13:12 28.02371 34.37791 34863 ft 433 kts 301°
2026-04-25 13:12 28.05549 34.33383 34858 ft 433 kts 301°
2026-04-25 13:13 28.09991 34.27252 34856 ft 434 kts 301°
2026-04-25 13:13 28.13843 34.21917 34851 ft 435 kts 301°
2026-04-25 13:14 28.17662 34.16616 34869 ft 435 kts 301°
2026-04-25 13:14 28.21482 34.11305 34898 ft 436 kts 301°
2026-04-25 13:15 28.25320 34.05965 34908 ft 438 kts 301°
2026-04-25 13:15 28.29186 34.00585 34936 ft 440 kts 301°
2026-04-25 13:16 28.33040 33.95212 34928 ft 441 kts 301°
2026-04-25 13:16 28.36908 33.89805 34924 ft 442 kts 301°
2026-04-25 13:17 28.40784 33.84390 34920 ft 441 kts 301°
2026-04-25 13:17 28.44640 33.78996 34900 ft 439 kts 301°
2026-04-25 13:18 28.48473 33.73629 34837 ft 437 kts 301°
2026-04-25 13:18 28.52294 33.68271 34847 ft 435 kts 301°
2026-04-25 13:19 28.56096 33.62929 34890 ft 432 kts 301°
2026-04-25 13:19 28.58632 33.59366 34857 ft 434 kts 301°
2026-04-25 13:20 28.63703 33.52231 34861 ft 437 kts 301°
2026-04-25 13:20 28.67525 33.46840 34870 ft 439 kts 301°
2026-04-25 13:21 28.71369 33.41414 34880 ft 441 kts 301°
2026-04-25 13:21 28.75212 33.35984 34883 ft 443 kts 301°
2026-04-25 13:22 28.79086 33.30503 34890 ft 444 kts 301°
2026-04-25 13:23 28.84884 33.22287 34884 ft 444 kts 301°
2026-04-25 13:23 28.88746 33.16803 34877 ft 444 kts 301°
2026-04-25 13:24 28.92634 33.11276 34866 ft 444 kts 301°
2026-04-25 13:24 28.96470 33.05816 34864 ft 444 kts 301°
2026-04-25 13:25 29.00335 33.00306 34864 ft 444 kts 301°
2026-04-25 13:25 29.04189 32.94805 34864 ft 444 kts 302°
2026-04-25 13:26 29.08045 32.89293 34863 ft 445 kts 302°
2026-04-25 13:26 29.11916 32.83753 34862 ft 445 kts 302°
2026-04-25 13:27 29.15777 32.78221 34870 ft 446 kts 302°
2026-04-25 13:27 29.19647 32.72667 34875 ft 446 kts 302°
2026-04-25 13:28 29.23499 32.67133 34866 ft 447 kts 302°
2026-04-25 13:28 29.27371 32.61563 34879 ft 447 kts 302°
2026-04-25 13:29 29.31237 32.55968 34883 ft 448 kts 301°
2026-04-25 13:29 29.34432 32.51307 34871 ft 448 kts 301°
2026-04-25 13:30 29.40858 32.41927 34894 ft 450 kts 301°
2026-04-25 13:31 29.46023 32.34382 34904 ft 449 kts 301°
2026-04-25 13:31 29.49874 32.28744 34903 ft 449 kts 301°
2026-04-25 13:32 29.53715 32.23114 34908 ft 449 kts 301°
2026-04-25 13:32 29.57555 32.17480 34902 ft 448 kts 301°
2026-04-25 13:33 29.61382 32.11854 34894 ft 448 kts 301°
2026-04-25 13:33 29.65232 32.06187 34896 ft 448 kts 301°
2026-04-25 13:34 29.69055 32.00552 34895 ft 448 kts 301°
2026-04-25 13:34 29.72878 31.94909 34900 ft 448 kts 301°
2026-04-25 13:35 29.76717 31.89236 34900 ft 449 kts 301°
2026-04-25 13:35 29.80505 31.83555 34898 ft 448 kts 300°
2026-04-25 13:36 29.84200 31.77749 34897 ft 448 kts 300°
2026-04-25 13:36 29.87950 31.72009 34887 ft 453 kts 305°
2026-04-25 13:37 29.92945 31.67407 34874 ft 473 kts 323°
2026-04-25 13:37 29.95955 31.65854 34867 ft 485 kts 333°
2026-04-25 13:37 29.99284 31.64885 34866 ft 498 kts 343°
2026-04-25 13:38 30.06136 31.63693 34863 ft 499 kts 343°
2026-04-25 13:38 30.12994 31.62460 34864 ft 499 kts 343°
2026-04-25 13:39 30.19849 31.61226 34868 ft 500 kts 343°
2026-04-25 13:39 30.26719 31.59990 34864 ft 500 kts 343°
2026-04-25 13:40 30.33583 31.58754 34864 ft 500 kts 343°
2026-04-25 13:40 30.40464 31.57514 34859 ft 501 kts 343°
2026-04-25 13:41 30.47333 31.56273 34853 ft 501 kts 343°
2026-04-25 13:41 30.54263 31.55020 34857 ft 501 kts 343°
2026-04-25 13:42 30.61128 31.53776 34855 ft 501 kts 343°
2026-04-25 13:42 30.67985 31.52532 34846 ft 501 kts 343°
2026-04-25 13:43 30.74875 31.51281 34847 ft 502 kts 343°
2026-04-25 13:43 30.81799 31.50020 34850 ft 502 kts 343°
2026-04-25 13:44 30.88671 31.48764 34850 ft 502 kts 343°
2026-04-25 13:44 30.95607 31.47496 34855 ft 502 kts 343°
2026-04-25 13:45 31.02503 31.46233 34851 ft 503 kts 343°
2026-04-25 13:45 31.09400 31.44968 34849 ft 503 kts 343°
2026-04-25 13:46 31.16298 31.43701 34852 ft 503 kts 343°
2026-04-25 13:46 31.23200 31.42432 34858 ft 503 kts 343°
2026-04-25 13:47 31.30118 31.41155 34856 ft 504 kts 343°
2026-04-25 13:47 31.37051 31.39869 34855 ft 505 kts 343°
2026-04-25 13:48 31.43204 31.38727 34861 ft 505 kts 343°
2026-04-25 13:48 31.50160 31.37434 34854 ft 506 kts 343°
2026-04-25 13:49 31.57123 31.36256 34867 ft 510 kts 348°
2026-04-25 13:49 31.64197 31.35552 34872 ft 511 kts 348°
2026-04-25 13:50 31.71309 31.34809 34874 ft 511 kts 348°
2026-04-25 13:50 31.84633 31.33422 34880 ft 512 kts 348°
2026-04-25 13:51 31.98865 31.31922 34880 ft 512 kts 348°
2026-04-25 13:51 32.11815 31.30545 34883 ft 512 kts 348°
2026-04-25 13:52 32.18927 31.29784 34882 ft 512 kts 349°
2026-04-25 13:52 32.28775 31.28725 34886 ft 511 kts 349°
2026-04-25 13:53 32.35918 31.27949 34884 ft 526 kts 349°
2026-04-25 13:53 32.43242 31.27158 34885 ft 529 kts 349°
2026-04-25 13:54 32.50546 31.26372 34884 ft 529 kts 349°
2026-04-25 13:54 32.57715 31.24891 34887 ft 520 kts 339°
2026-04-25 13:55 32.64391 31.21746 34892 ft 510 kts 328°
2026-04-25 13:55 32.70756 31.18021 34886 ft 512 kts 329°
2026-04-25 13:56 32.77146 31.14308 34889 ft 512 kts 329°
2026-04-25 13:56 32.83546 31.10566 34888 ft 512 kts 329°
2026-04-25 13:57 32.89928 31.06822 34891 ft 513 kts 329°
2026-04-25 13:57 32.96349 31.03049 34891 ft 513 kts 329°
2026-04-25 13:58 33.02720 30.99299 34889 ft 513 kts 329°
2026-04-25 13:58 33.09110 30.95532 34890 ft 513 kts 329°
2026-04-25 13:59 33.15290 30.91352 34891 ft 511 kts 325°
2026-04-25 13:59 33.21449 30.87116 34889 ft 511 kts 326°
2026-04-25 14:00 33.27607 30.82874 34890 ft 512 kts 326°
2026-04-25 14:00 33.33798 30.78596 34896 ft 512 kts 326°
2026-04-25 14:01 33.39952 30.74335 34901 ft 512 kts 326°
2026-04-25 14:01 33.46084 30.70082 34904 ft 512 kts 326°
2026-04-25 14:02 33.52233 30.65810 34888 ft 513 kts 325°
2026-04-25 14:02 33.58406 30.61515 34890 ft 513 kts 326°
2026-04-25 14:03 33.64579 30.57211 34892 ft 513 kts 326°
2026-04-25 14:03 33.70748 30.52904 34895 ft 513 kts 326°
2026-04-25 14:04 33.76916 30.48590 34893 ft 514 kts 326°
2026-04-25 14:04 33.83090 30.44265 34895 ft 514 kts 326°
2026-04-25 14:05 33.89263 30.39933 34894 ft 514 kts 326°
2026-04-25 14:05 33.95451 30.35583 34889 ft 518 kts 326°
2026-04-25 14:06 34.01666 30.31206 34894 ft 520 kts 326°
2026-04-25 14:06 34.07850 30.26847 34896 ft 515 kts 326°
2026-04-25 14:07 34.14082 30.22443 34897 ft 516 kts 326°
2026-04-25 14:07 34.20277 30.18058 34896 ft 516 kts 326°
2026-04-25 14:08 34.26464 30.13671 34896 ft 516 kts 326°
2026-04-25 14:08 34.32636 30.09288 34900 ft 517 kts 326°
2026-04-25 14:09 34.38831 30.04881 34902 ft 517 kts 326°
2026-04-25 14:09 34.44884 30.00253 34902 ft 513 kts 319°
2026-04-25 14:10 34.50134 29.94490 34900 ft 508 kts 310°
2026-04-25 14:10 34.55068 29.88405 34900 ft 509 kts 311°
2026-04-25 14:11 34.60050 29.82287 34905 ft 509 kts 311°
2026-04-25 14:11 34.64991 29.76187 34912 ft 509 kts 310°
2026-04-25 14:12 34.69956 29.70037 34897 ft 509 kts 310°
2026-04-25 14:12 34.74902 29.63900 34899 ft 509 kts 310°
2026-04-25 14:13 34.79864 29.57733 34898 ft 510 kts 310°
2026-04-25 14:13 34.84827 29.51552 34898 ft 510 kts 310°
2026-04-25 14:14 34.89772 29.45383 34905 ft 511 kts 310°
2026-04-25 14:14 34.94730 29.39186 34902 ft 511 kts 310°
2026-04-25 14:15 34.99793 29.33094 34898 ft 515 kts 316°
2026-04-25 14:15 35.05515 29.27817 34899 ft 517 kts 320°
2026-04-25 14:16 35.11298 29.22530 34898 ft 517 kts 320°
2026-04-25 14:16 35.17024 29.17287 34900 ft 518 kts 320°
2026-04-25 14:17 35.22813 29.11983 34900 ft 518 kts 320°
2026-04-25 14:17 35.28565 29.06705 34898 ft 518 kts 320°
2026-04-25 14:18 35.34317 29.01417 34907 ft 518 kts 320°
2026-04-25 14:18 35.40099 28.96092 34901 ft 519 kts 320°
2026-04-25 14:19 35.45855 28.90781 34900 ft 520 kts 320°
2026-04-25 14:19 35.51612 28.85459 34903 ft 520 kts 320°
2026-04-25 14:20 35.57397 28.80102 34901 ft 520 kts 320°
2026-04-25 14:20 35.63165 28.74750 34905 ft 521 kts 320°
2026-04-25 14:21 35.68968 28.69356 34904 ft 521 kts 320°
2026-04-25 14:21 35.74732 28.63988 34903 ft 521 kts 320°
2026-04-25 14:22 35.80519 28.58590 34903 ft 522 kts 320°
2026-04-25 14:22 35.86305 28.53181 34911 ft 522 kts 320°
2026-04-25 14:23 35.92049 28.47802 34906 ft 522 kts 320°
2026-04-25 14:23 35.97854 28.42355 34908 ft 522 kts 320°
2026-04-25 14:24 36.03636 28.36920 34912 ft 522 kts 320°
2026-04-25 14:24 36.09365 28.31524 34913 ft 522 kts 320°
2026-04-25 14:25 36.15161 28.26055 34915 ft 522 kts 321°
2026-04-25 14:25 36.20926 28.20604 34913 ft 521 kts 321°
2026-04-25 14:26 36.26681 28.15153 34914 ft 522 kts 321°
2026-04-25 14:26 36.32425 28.09703 34913 ft 522 kts 321°
2026-04-25 14:27 36.37852 28.03734 34909 ft 520 kts 315°
2026-04-25 14:27 36.43149 27.97630 34911 ft 520 kts 315°
2026-04-25 14:28 36.48442 27.91529 34911 ft 520 kts 315°
2026-04-25 14:28 36.53710 27.85429 34910 ft 520 kts 315°
2026-04-25 14:29 36.59011 27.79276 34914 ft 519 kts 316°
2026-04-25 14:29 36.64278 27.73149 34917 ft 519 kts 316°
2026-04-25 14:30 36.69548 27.67008 34916 ft 518 kts 316°
2026-04-25 14:30 36.77433 27.57795 34921 ft 518 kts 316°
2026-04-25 14:31 36.82664 27.51668 34926 ft 518 kts 316°
2026-04-25 14:31 36.87058 27.46513 34928 ft 518 kts 316°
2026-04-25 14:32 36.92268 27.40389 34931 ft 518 kts 316°
2026-04-25 14:32 36.97510 27.34215 34933 ft 517 kts 316°
2026-04-25 14:33 37.02743 27.28040 34933 ft 517 kts 316°
2026-04-25 14:33 37.08001 27.21822 34939 ft 518 kts 316°
2026-04-25 14:34 37.13222 27.15637 34941 ft 518 kts 316°
2026-04-25 14:34 37.18448 27.09431 34942 ft 518 kts 316°
2026-04-25 14:35 37.23643 27.03252 34943 ft 519 kts 316°
2026-04-25 14:35 37.28866 26.97025 34948 ft 518 kts 316°
2026-04-25 14:36 37.34117 26.90754 34947 ft 518 kts 316°
2026-04-25 14:36 37.39312 26.84538 34954 ft 519 kts 316°
2026-04-25 14:37 37.44685 26.78494 34960 ft 517 kts 320°
2026-04-25 14:37 37.50195 26.72674 34961 ft 517 kts 320°
2026-04-25 14:38 37.55690 26.66778 34963 ft 517 kts 320°
2026-04-25 14:38 37.61137 26.60878 34963 ft 516 kts 320°
2026-04-25 14:39 37.66569 26.54975 34966 ft 516 kts 320°
2026-04-25 14:39 37.71992 26.49077 34967 ft 517 kts 320°
2026-04-25 14:40 37.77446 26.43148 34973 ft 516 kts 319°
2026-04-25 14:40 37.82893 26.37213 34977 ft 516 kts 319°
2026-04-25 14:41 37.88304 26.31304 34975 ft 516 kts 319°
2026-04-25 14:41 37.93732 26.25345 34974 ft 516 kts 319°
2026-04-25 14:42 37.98237 26.20389 34977 ft 516 kts 319°
2026-04-25 14:42 38.04584 26.13395 34982 ft 516 kts 319°
2026-04-25 14:43 38.09976 26.07440 34983 ft 516 kts 319°
2026-04-25 14:43 38.15394 26.01443 34985 ft 517 kts 319°
2026-04-25 14:44 38.20811 25.95433 34988 ft 517 kts 320°
2026-04-25 14:44 38.26277 25.89488 34988 ft 517 kts 324°
2026-04-25 14:45 38.31995 25.83960 34986 ft 516 kts 324°
2026-04-25 14:45 38.37712 25.78385 34987 ft 517 kts 324°
2026-04-25 14:46 38.43395 25.72839 34986 ft 516 kts 324°
2026-04-25 14:46 38.49089 25.67274 34988 ft 516 kts 325°
2026-04-25 14:47 38.53853 25.62608 34989 ft 516 kts 325°
2026-04-25 14:47 38.60495 25.56089 34987 ft 516 kts 325°
2026-04-25 14:48 38.66165 25.50511 34993 ft 515 kts 325°
2026-04-25 14:48 38.71846 25.44910 34992 ft 515 kts 325°
2026-04-25 14:49 38.77496 25.39329 34993 ft 514 kts 325°
2026-04-25 14:49 38.83009 25.33871 34992 ft 514 kts 325°
2026-04-25 14:50 38.88680 25.28246 34993 ft 513 kts 325°
2026-04-25 14:50 38.94328 25.22633 34998 ft 514 kts 324°
2026-04-25 14:51 38.99973 25.17011 34997 ft 513 kts 324°
2026-04-25 14:51 39.05616 25.11378 35000 ft 513 kts 324°
2026-04-25 14:52 39.11224 25.05769 35001 ft 512 kts 324°
2026-04-25 14:52 39.15875 25.01108 35003 ft 511 kts 324°
2026-04-25 14:53 39.22459 24.94497 35002 ft 510 kts 324°
2026-04-25 14:53 39.28064 24.88856 34999 ft 509 kts 324°
2026-04-25 14:54 39.33610 24.83263 35008 ft 509 kts 324°
2026-04-25 14:54 39.39172 24.77642 35009 ft 507 kts 324°
2026-04-25 14:55 39.44745 24.71999 35009 ft 507 kts 324°
2026-04-25 14:55 39.50295 24.66366 35012 ft 507 kts 324°
2026-04-25 14:56 39.55812 24.60755 35015 ft 507 kts 324°